Date String (YYYY-MM-DD hh:mm:ss) UTC,Instrument flags,absolute air pressure of the measurement (hPa),sample flow rate (lpm),inlet stack bypass flow (lpm),air temperature of the measurement (°C),ambient temperature measured by the external sensor (°C),aerosol sample conditioner tube jacket temperature (°C),OPC LED temperature (°C),internal box temperature (°C),relative humidity of the measurement (%),span deviation,mass concentration of particles derived from Lorenz-Mie calculation of OPC scattering (μg/m³),mass concentration of particles derived from Lorenz-Mie calculation of OPC scattering (μg/m³),mass concentration of particles derived from Lorenz-Mie calculation of OPC scattering (μg/m³)
DateTimeUTC,F1_M11,P_M11,Q1_M11,Q2_M11,T1_M11,T2_M11,T3_M11,T4_M11,T5_M11,U1_M11,ZSPAN_M11,X0_M11,X2_M11,X1_M11
2023-12-11 20:00:00,SystemResetWarning,0830.2,5.01,000.00,025.2,024.5,000.0,033.2,026.6,14.2,0000.0,0011.46,0004.48,0004.03
2023-12-11 20:01:00,SystemResetWarning,0830.2,5.00,000.00,025.2,024.5,000.0,033.3,026.6,14.0,0000.0,0011.14,0004.49,0004.04
2023-12-11 20:02:00,SystemResetWarning,0830.2,4.99,000.00,025.2,024.5,000.0,033.3,026.6,14.1,0000.0,0011.31,0004.52,0004.05
2023-12-11 20:03:00,SystemResetWarning,0830.3,4.99,000.00,025.2,024.6,000.0,033.3,026.6,14.1,0000.0,0012.13,0004.58,0004.07
2023-12-11 20:04:00,SystemResetWarning,0830.3,4.99,000.00,025.2,024.6,000.0,033.3,026.7,13.9,0000.0,0012.58,0004.59,0004.07
2023-12-11 20:05:00,SystemResetWarning,0830.3,5.00,000.00,025.3,024.6,000.0,033.3,026.7,13.8,0000.0,0013.12,0004.59,0004.07
2023-12-11 20:06:00,SystemResetWarning,0830.2,5.01,000.00,025.3,024.7,000.0,033.4,026.7,14.0,0000.0,0013.42,0004.57,0004.08
2023-12-11 20:07:00,SystemResetWarning,0830.2,5.00,000.00,025.3,024.7,000.0,033.4,026.8,13.8,0000.0,0012.72,0004.58,0004.08
2023-12-11 20:08:00,SystemResetWarning,0830.2,4.99,000.00,025.3,024.7,000.0,033.4,026.8,13.8,0000.0,0012.20,0004.57,0004.08
2023-12-11 20:09:00,SystemResetWarning,0830.2,4.99,000.00,025.4,024.8,000.0,033.4,026.8,13.9,0000.0,0012.55,0004.60,0004.08
2023-12-11 20:10:00,SystemResetWarning,0830.2,4.99,000.00,025.4,024.8,000.0,033.4,026.8,13.8,0000.0,0012.52,0004.61,0004.08
2023-12-11 20:11:00,SystemResetWarning,0830.2,5.00,000.00,025.4,024.8,000.0,033.5,026.8,13.5,0000.0,0012.34,0004.60,0004.07
2023-12-11 20:12:00,SystemResetWarning,0830.2,5.00,000.00,025.4,024.8,000.0,033.5,026.8,13.4,0000.0,0013.10,0004.64,0004.07
2023-12-11 20:13:00,SystemResetWarning,0830.3,5.01,000.00,025.4,024.8,000.0,033.5,026.8,13.5,0000.0,0013.08,0004.66,0004.06
2023-12-11 20:14:00,SystemResetWarning,0830.3,5.01,000.00,025.5,024.8,000.0,033.5,026.9,13.5,0000.0,0012.15,0004.61,0004.04
2023-12-11 20:15:00,SystemResetWarning,0830.2,5.00,000.00,025.5,024.8,000.0,033.5,026.9,13.5,0000.0,0011.81,0004.60,0004.04
2023-12-11 20:16:00,SystemResetWarning,0830.3,4.99,000.00,025.5,024.8,000.0,033.5,026.9,13.6,0000.0,0011.47,0004.60,0004.05
2023-12-11 20:17:00,SystemResetWarning,0830.3,4.99,000.00,025.5,024.8,000.0,033.6,026.9,13.6,0000.0,0011.23,0004.65,0004.04
2023-12-11 20:18:00,SystemResetWarning,0830.3,5.00,000.00,025.5,024.9,000.0,033.6,026.9,13.9,0000.0,0012.24,0004.67,0004.04
2023-12-11 20:19:00,SystemResetWarning,0830.2,5.01,000.00,025.5,024.9,000.0,033.6,026.9,13.9,0000.0,0012.37,0004.69,0004.05
2023-12-11 20:20:00,SystemResetWarning,0830.2,5.00,000.00,025.5,024.9,000.0,033.6,027.0,14.0,0000.0,0012.31,0004.69,0004.06
2023-12-11 20:21:00,SystemResetWarning,0830.2,5.00,000.00,025.6,024.9,000.0,033.6,027.0,14.0,0000.0,0011.93,0004.70,0004.06
2023-12-11 20:22:00,SystemResetWarning,0830.2,5.01,000.00,025.6,024.9,000.0,033.7,027.0,13.7,0000.0,0011.80,0004.70,0004.05
2023-12-11 20:23:00,SystemResetWarning,0830.2,5.00,000.00,025.6,024.9,000.0,033.7,027.0,13.5,0000.0,0010.43,0004.70,0004.06
2023-12-11 20:24:00,SystemResetWarning,0830.2,5.00,000.00,025.6,025.0,000.0,033.7,027.0,14.0,0000.0,0010.26,0004.69,0004.06
2023-12-11 20:25:00,SystemResetWarning,0830.3,5.00,000.00,025.6,025.0,000.0,033.7,027.0,13.9,0000.0,0010.31,0004.70,0004.07
2023-12-11 20:26:00,SystemResetWarning,0830.2,5.00,000.00,025.7,025.0,000.0,033.7,027.1,13.8,0000.0,0010.21,0004.71,0004.08
2023-12-11 20:27:00,SystemResetWarning,0830.2,5.00,000.00,025.7,025.0,000.0,033.7,027.1,13.4,0000.0,0009.81,0004.70,0004.07
2023-12-11 20:28:00,SystemResetWarning,0830.3,5.01,000.00,025.7,025.0,000.0,033.8,027.1,13.6,0000.0,0009.54,0004.66,0004.08
2023-12-11 20:29:00,SystemResetWarning,0830.2,5.01,000.00,025.7,025.0,000.0,033.8,027.1,13.6,0000.0,0008.57,0004.68,0004.09
2023-12-11 20:30:00,SystemResetWarning,0830.2,4.99,000.00,025.7,025.0,000.0,033.8,027.1,13.6,0000.0,0008.46,0004.71,0004.10
2023-12-11 20:31:00,SystemResetWarning,0830.2,4.99,000.00,025.7,025.0,000.0,033.8,027.1,13.5,0000.0,0009.45,0004.78,0004.12
2023-12-11 20:32:00,SystemResetWarning,0830.2,5.02,000.00,025.7,025.0,000.0,033.8,027.1,13.6,0000.0,0009.84,0004.80,0004.14
2023-12-11 20:33:00,SystemResetWarning,0830.2,5.01,000.00,025.8,025.1,000.0,033.8,027.2,13.6,0000.0,0009.89,0004.83,0004.16
2023-12-11 20:34:00,SystemResetWarning,0830.2,4.99,000.00,025.8,025.1,000.0,033.9,027.2,13.8,0000.0,0010.33,0004.85,0004.19
2023-12-11 20:35:00,SystemResetWarning,0830.3,4.99,000.00,025.8,025.1,000.0,033.9,027.2,13.9,0000.0,0011.05,0004.89,0004.20
2023-12-11 20:36:00,SystemResetWarning,0830.3,5.00,000.00,025.8,025.1,000.0,033.9,027.2,13.5,0000.0,0011.24,0004.96,0004.23
2023-12-11 20:37:00,SystemResetWarning,0830.2,5.02,000.00,025.8,025.1,000.0,033.9,027.2,13.9,0000.0,0011.27,0004.99,0004.26
2023-12-11 20:38:00,SystemResetWarning,0830.2,5.01,000.00,025.8,025.1,000.0,033.9,027.2,13.8,0000.0,0011.88,0005.04,0004.29
2023-12-11 20:39:00,SystemResetWarning,0830.2,4.99,000.00,025.8,025.1,000.0,033.9,027.3,13.6,0000.0,0012.33,0005.09,0004.31
2023-12-11 20:40:00,SystemResetWarning,0830.2,4.99,000.00,025.9,025.1,000.0,033.9,027.3,13.8,0000.0,0012.42,0005.09,0004.32
2023-12-11 20:41:00,SystemResetWarning,0830.1,5.01,000.00,025.9,025.1,000.0,034.0,027.3,13.6,0000.0,0012.82,0005.05,0004.31
2023-12-11 20:42:00,SystemResetWarning,0830.1,5.00,000.00,025.9,025.1,000.0,034.0,027.3,13.3,0000.0,0012.49,0004.98,0004.31
2023-12-11 20:43:00,SystemResetWarning,0830.1,5.01,000.00,025.9,025.2,000.0,034.0,027.3,13.3,0000.0,0012.60,0004.98,0004.32
2023-12-11 20:44:00,SystemResetWarning,0830.1,5.00,000.00,025.9,025.2,000.0,034.0,027.3,13.4,0000.0,0013.20,0005.00,0004.31
2023-12-11 20:45:00,SystemResetWarning,0830.1,4.99,000.00,025.9,025.2,000.0,034.0,027.3,13.6,0000.0,0012.90,0005.00,0004.32
2023-12-11 20:46:00,SystemResetWarning,0830.2,4.99,000.00,025.9,025.2,000.0,034.0,027.3,13.8,0000.0,0012.15,0004.98,0004.33
2023-12-11 20:47:00,SystemResetWarning,0830.2,4.99,000.00,026.0,025.2,000.0,034.1,027.4,13.5,0000.0,0012.01,0004.96,0004.34
2023-12-11 20:48:00,SystemResetWarning,0830.2,5.00,000.00,026.0,025.2,000.0,034.1,027.4,13.4,0000.0,0012.04,0005.00,0004.35
2023-12-11 20:49:00,SystemResetWarning,0830.2,5.00,000.00,026.0,025.2,000.0,034.1,027.4,13.4,0000.0,0011.59,0005.01,0004.37
2023-12-11 20:50:00,SystemResetWarning,0830.2,5.00,000.00,026.0,025.3,000.0,034.1,027.4,13.5,0000.0,0011.17,0004.99,0004.39
2023-12-11 20:51:00,SystemResetWarning,0830.2,5.00,000.00,026.0,025.3,000.0,034.1,027.4,13.5,0000.0,0011.14,0005.00,0004.41
2023-12-11 20:52:00,SystemResetWarning,0830.2,5.00,000.00,026.0,025.3,000.0,034.1,027.4,13.7,0000.0,0011.27,0005.07,0004.45
2023-12-11 20:53:00,SystemResetWarning,0830.3,5.00,000.00,026.0,025.3,000.0,034.2,027.4,13.8,0000.0,0010.85,0005.15,0004.48
2023-12-11 20:54:00,SystemResetWarning,0830.3,5.00,000.00,026.1,025.3,000.0,034.2,027.5,13.8,0000.0,0010.67,0005.21,0004.51
2023-12-11 20:55:00,SystemResetWarning,0830.3,4.99,000.00,026.1,025.3,000.0,034.2,027.5,13.8,0000.0,0010.60,0005.22,0004.54
2023-12-11 20:56:00,SystemResetWarning,0830.2,5.00,000.00,026.1,025.3,000.0,034.2,027.5,13.7,0000.0,0010.63,0005.24,0004.57
2023-12-11 20:57:00,SystemResetWarning,0830.3,5.00,000.00,026.1,025.4,000.0,034.2,027.5,13.6,0000.0,0010.98,0005.28,0004.60
2023-12-11 20:58:00,SystemResetWarning,0830.2,5.00,000.00,026.1,025.4,000.0,034.2,027.5,13.5,0000.0,0010.98,0005.30,0004.64
2023-12-11 20:59:00,SystemResetWarning,0830.2,5.00,000.00,026.1,025.4,000.0,034.2,027.5,13.5,0000.0,0010.94,0005.29,0004.65
